Year,Month,Day,Hour,Minute,Value (Times are PST for temperature in C)
2013,07,30,00,00,15.40
2013,07,30,00,01,15.30
2013,07,30,00,02,15.30
2013,07,30,00,03,15.30
2013,07,30,00,04,15.30
2013,07,30,00,05,15.20
2013,07,30,00,06,15.20
2013,07,30,00,07,15.20
2013,07,30,00,08,15.20
2013,07,30,00,09,15.20
2013,07,30,00,10,15.20
2013,07,30,00,11,15.10
2013,07,30,00,12,15.10
2013,07,30,00,13,15.10
2013,07,30,00,14,15.10
2013,07,30,00,15,15.10
2013,07,30,00,16,15.10
2013,07,30,00,17,15.10
2013,07,30,00,18,15.00
2013,07,30,00,19,15.00
2013,07,30,00,20,15.00
2013,07,30,00,21,15.00
2013,07,30,00,22,14.90
2013,07,30,00,23,14.90
2013,07,30,00,24,14.90
2013,07,30,00,25,14.90
2013,07,30,00,26,14.90
2013,07,30,00,27,14.90
2013,07,30,00,28,14.80
2013,07,30,00,29,14.80
2013,07,30,00,30,14.80
2013,07,30,00,31,14.80
2013,07,30,00,32,14.70
2013,07,30,00,33,14.70
2013,07,30,00,34,14.70
2013,07,30,00,35,14.70
2013,07,30,00,36,14.60
2013,07,30,00,37,14.60
2013,07,30,00,38,14.60
2013,07,30,00,39,14.60
2013,07,30,00,40,14.50
2013,07,30,00,41,14.50
2013,07,30,00,42,14.40
2013,07,30,00,43,14.40
2013,07,30,00,44,14.40
2013,07,30,00,45,14.40
2013,07,30,00,46,14.30
2013,07,30,00,47,14.30
2013,07,30,00,48,14.30
2013,07,30,00,49,14.30
2013,07,30,00,50,14.30
2013,07,30,00,51,14.30
2013,07,30,00,52,14.30
2013,07,30,00,53,14.20
2013,07,30,00,54,14.20
2013,07,30,00,55,14.20
2013,07,30,00,56,14.20
2013,07,30,00,57,14.20
2013,07,30,00,58,14.20
2013,07,30,00,59,14.20
2013,07,30,01,00,14.20
2013,07,30,01,01,14.20
2013,07,30,01,02,14.20
2013,07,30,01,03,14.10
2013,07,30,01,04,14.10
2013,07,30,01,05,14.10
2013,07,30,01,06,14.10
2013,07,30,01,07,14.10
2013,07,30,01,08,14.10
2013,07,30,01,09,14.10
2013,07,30,01,10,14.00
2013,07,30,01,11,14.00
2013,07,30,01,12,14.00
2013,07,30,01,13,14.00
2013,07,30,01,14,13.90
2013,07,30,01,15,13.90
2013,07,30,01,16,13.90
2013,07,30,01,17,13.90
2013,07,30,01,18,13.90
2013,07,30,01,19,13.90
2013,07,30,01,20,13.90
2013,07,30,01,21,13.90
2013,07,30,01,22,13.90
2013,07,30,01,23,13.90
2013,07,30,01,24,13.90
2013,07,30,01,25,13.90
2013,07,30,01,26,13.90
2013,07,30,01,27,13.90
2013,07,30,01,28,13.90
2013,07,30,01,29,13.90
2013,07,30,01,30,13.90
2013,07,30,01,31,14.00
2013,07,30,01,32,13.90
2013,07,30,01,33,13.90
2013,07,30,01,34,13.90
2013,07,30,01,35,13.90
2013,07,30,01,36,13.90
2013,07,30,01,37,13.90
2013,07,30,01,38,13.80
2013,07,30,01,39,13.80
2013,07,30,01,40,13.80
2013,07,30,01,41,13.80
2013,07,30,01,42,13.70
2013,07,30,01,43,13.70
2013,07,30,01,44,13.70
2013,07,30,01,45,13.70
2013,07,30,01,46,13.70
2013,07,30,01,47,13.70
2013,07,30,01,48,13.70
2013,07,30,01,49,13.70
2013,07,30,01,50,13.70
2013,07,30,01,51,13.80
2013,07,30,01,52,13.80
2013,07,30,01,53,13.80
2013,07,30,01,54,13.80
2013,07,30,01,55,13.90
2013,07,30,01,56,13.90
2013,07,30,01,57,14.00
2013,07,30,01,58,14.00
2013,07,30,01,59,13.90
2013,07,30,02,00,13.90
2013,07,30,02,01,13.90
2013,07,30,02,02,13.90
2013,07,30,02,03,13.80
2013,07,30,02,04,13.80
2013,07,30,02,05,13.80
2013,07,30,02,06,13.80
2013,07,30,02,07,13.70
2013,07,30,02,08,13.70
2013,07,30,02,09,13.70
2013,07,30,02,10,13.70
2013,07,30,02,11,13.70
2013,07,30,02,12,13.60
2013,07,30,02,13,13.60
2013,07,30,02,14,13.60
2013,07,30,02,15,13.60
2013,07,30,02,16,13.60
2013,07,30,02,17,13.60
2013,07,30,02,18,13.60
2013,07,30,02,19,13.60
2013,07,30,02,20,13.60
2013,07,30,02,21,13.60
2013,07,30,02,22,13.60
2013,07,30,02,23,13.70
2013,07,30,02,24,13.70
2013,07,30,02,25,13.70
2013,07,30,02,26,13.70
2013,07,30,02,27,13.70
2013,07,30,02,28,13.70
2013,07,30,02,29,13.70
2013,07,30,02,30,13.70
2013,07,30,02,31,13.70
2013,07,30,02,32,13.70
2013,07,30,02,33,13.70
2013,07,30,02,34,13.70
2013,07,30,02,35,13.80
2013,07,30,02,36,13.80
2013,07,30,02,37,13.80
2013,07,30,02,38,13.80
2013,07,30,02,39,13.80
2013,07,30,02,40,13.80
2013,07,30,02,41,13.80
2013,07,30,02,42,13.80
2013,07,30,02,43,13.90
2013,07,30,02,44,13.90
2013,07,30,02,45,13.90
2013,07,30,02,46,13.90
2013,07,30,02,47,14.00
2013,07,30,02,48,14.00
2013,07,30,02,49,14.00
2013,07,30,02,50,14.00
2013,07,30,02,51,14.00
2013,07,30,02,52,14.10
2013,07,30,02,53,14.10
2013,07,30,02,54,14.10
2013,07,30,02,55,14.10
2013,07,30,02,56,14.10
2013,07,30,02,57,14.20
2013,07,30,02,58,14.20
2013,07,30,02,59,14.20
2013,07,30,03,00,14.20
2013,07,30,03,01,14.20
2013,07,30,03,02,14.20
2013,07,30,03,03,14.30
2013,07,30,03,04,14.30
2013,07,30,03,05,14.30
2013,07,30,03,06,14.30
2013,07,30,03,07,14.40
2013,07,30,03,08,14.40
2013,07,30,03,09,14.40
2013,07,30,03,10,14.40
2013,07,30,03,11,14.40
2013,07,30,03,12,14.50
2013,07,30,03,13,14.40
2013,07,30,03,14,14.50
2013,07,30,03,15,14.50
2013,07,30,03,16,14.50
2013,07,30,03,17,14.60
2013,07,30,03,18,14.60
2013,07,30,03,19,14.60
2013,07,30,03,20,14.60
2013,07,30,03,21,14.60
2013,07,30,03,22,14.60
2013,07,30,03,23,14.60
2013,07,30,03,24,14.60
2013,07,30,03,25,14.60
2013,07,30,03,26,14.60
2013,07,30,03,27,14.60
2013,07,30,03,28,14.60
2013,07,30,03,29,14.70
2013,07,30,03,30,14.70
2013,07,30,03,31,14.70
2013,07,30,03,32,14.70
2013,07,30,03,33,14.70
2013,07,30,03,34,14.70
2013,07,30,03,35,14.70
2013,07,30,03,36,14.70
2013,07,30,03,37,14.70
2013,07,30,03,38,14.70
2013,07,30,03,39,14.70
2013,07,30,03,40,14.70
2013,07,30,03,41,14.70
2013,07,30,03,42,14.70
2013,07,30,03,43,14.70
2013,07,30,03,44,14.70
2013,07,30,03,45,14.70
2013,07,30,03,46,14.60
2013,07,30,03,47,14.60
2013,07,30,03,48,14.50
2013,07,30,03,49,14.50
2013,07,30,03,50,14.40
2013,07,30,03,51,14.40
2013,07,30,03,52,14.30
2013,07,30,03,53,14.30
2013,07,30,03,54,14.30
2013,07,30,03,55,14.20
2013,07,30,03,56,14.10
2013,07,30,03,57,14.10
2013,07,30,03,58,14.00
2013,07,30,03,59,13.90
2013,07,30,04,00,13.80
2013,07,30,04,01,13.70
2013,07,30,04,02,13.70
2013,07,30,04,03,13.60
2013,07,30,04,04,13.60
2013,07,30,04,05,13.50
2013,07,30,04,06,13.50
2013,07,30,04,07,13.40
2013,07,30,04,08,13.30
2013,07,30,04,09,13.30
2013,07,30,04,10,13.20
2013,07,30,04,11,13.10
2013,07,30,04,12,13.10
2013,07,30,04,13,13.00
2013,07,30,04,14,13.00
2013,07,30,04,15,12.90
2013,07,30,04,16,12.80
2013,07,30,04,17,12.80
2013,07,30,04,18,12.70
2013,07,30,04,19,12.70
2013,07,30,04,20,12.70
2013,07,30,04,21,12.70
2013,07,30,04,22,12.60
2013,07,30,04,23,12.60
2013,07,30,04,24,12.60
2013,07,30,04,25,12.60
2013,07,30,04,26,12.60
2013,07,30,04,27,12.50
2013,07,30,04,28,12.50
2013,07,30,04,29,12.50
2013,07,30,04,30,12.50
2013,07,30,04,31,12.40
2013,07,30,04,32,12.40
2013,07,30,04,33,12.40
2013,07,30,04,34,12.40
2013,07,30,04,35,12.40
2013,07,30,04,36,12.30
2013,07,30,04,37,12.30
2013,07,30,04,38,12.30
2013,07,30,04,39,12.30
2013,07,30,04,40,12.30
2013,07,30,04,41,12.30
2013,07,30,04,42,12.20
2013,07,30,04,43,12.20
2013,07,30,04,44,12.20
2013,07,30,04,45,12.10
2013,07,30,04,46,12.10
2013,07,30,04,47,12.10
2013,07,30,04,48,12.10
2013,07,30,04,49,12.10
2013,07,30,04,50,12.10
2013,07,30,04,51,12.00
2013,07,30,04,52,12.00
2013,07,30,04,53,11.90
2013,07,30,04,54,11.90
2013,07,30,04,55,11.80
2013,07,30,04,56,11.80
2013,07,30,04,57,11.80
2013,07,30,04,58,11.80
2013,07,30,04,59,11.80
2013,07,30,05,00,11.80
2013,07,30,05,01,11.80
2013,07,30,05,02,11.80
2013,07,30,05,03,11.80
2013,07,30,05,04,11.70
2013,07,30,05,05,11.70
2013,07,30,05,06,11.70
2013,07,30,05,07,11.70
2013,07,30,05,08,11.70
2013,07,30,05,09,11.70
2013,07,30,05,10,11.70
2013,07,30,05,11,11.70
2013,07,30,05,12,11.70
2013,07,30,05,13,11.70
2013,07,30,05,14,11.70
2013,07,30,05,15,11.70
2013,07,30,05,16,11.70
2013,07,30,05,17,11.70
2013,07,30,05,18,11.60
2013,07,30,05,19,11.60
2013,07,30,05,20,11.60
2013,07,30,05,21,11.60
2013,07,30,05,22,11.60
2013,07,30,05,23,11.60
2013,07,30,05,24,11.60
2013,07,30,05,25,11.60
2013,07,30,05,26,11.60
2013,07,30,05,27,11.60
2013,07,30,05,28,11.60
2013,07,30,05,29,11.60
2013,07,30,05,30,11.60
2013,07,30,05,31,11.60
2013,07,30,05,32,11.60
2013,07,30,05,33,11.60
2013,07,30,05,34,11.60
2013,07,30,05,35,11.60
2013,07,30,05,36,11.60
2013,07,30,05,37,11.60
2013,07,30,05,38,11.50
2013,07,30,05,39,11.50
2013,07,30,05,40,11.50
2013,07,30,05,41,11.50
2013,07,30,05,42,11.40
2013,07,30,05,43,11.40
2013,07,30,05,44,11.40
2013,07,30,05,45,11.40
2013,07,30,05,46,11.40
2013,07,30,05,47,11.40
2013,07,30,05,48,11.40
2013,07,30,05,49,11.50
2013,07,30,05,50,11.50
2013,07,30,05,51,11.50
2013,07,30,05,52,11.50
2013,07,30,05,53,11.50
2013,07,30,05,54,11.50
2013,07,30,05,55,11.50
2013,07,30,05,56,11.50
2013,07,30,05,57,11.50
2013,07,30,05,58,11.50
2013,07,30,05,59,11.50
2013,07,30,06,00,11.40
2013,07,30,06,01,11.40
2013,07,30,06,02,11.40
2013,07,30,06,03,11.40
2013,07,30,06,04,11.40
2013,07,30,06,05,11.40
2013,07,30,06,06,11.30
2013,07,30,06,07,11.30
2013,07,30,06,08,11.30
2013,07,30,06,09,11.30
2013,07,30,06,10,11.30
2013,07,30,06,11,11.30
2013,07,30,06,12,11.20
2013,07,30,06,13,11.20
2013,07,30,06,14,11.20
2013,07,30,06,15,11.20
2013,07,30,06,16,11.30
2013,07,30,06,17,11.30
2013,07,30,06,18,11.30
2013,07,30,06,19,11.30
2013,07,30,06,20,11.40
2013,07,30,06,21,11.40
2013,07,30,06,22,11.40
2013,07,30,06,23,11.50
2013,07,30,06,24,11.50
2013,07,30,06,25,11.50
2013,07,30,06,26,11.60
2013,07,30,06,27,11.60
2013,07,30,06,28,11.60
2013,07,30,06,29,11.60
2013,07,30,06,30,11.60
2013,07,30,06,31,11.60
2013,07,30,06,32,11.70
2013,07,30,06,33,11.70
2013,07,30,06,34,11.70
2013,07,30,06,35,11.70
2013,07,30,06,36,11.70
2013,07,30,06,37,11.70
2013,07,30,06,38,11.70
2013,07,30,06,39,11.70
2013,07,30,06,40,11.70
2013,07,30,06,41,11.70
2013,07,30,06,42,11.70
2013,07,30,06,43,11.70
2013,07,30,06,44,11.70
2013,07,30,06,45,11.80
2013,07,30,06,46,11.80
2013,07,30,06,47,11.80
2013,07,30,06,48,11.90
2013,07,30,06,49,11.90
2013,07,30,06,50,11.90
2013,07,30,06,51,11.90
2013,07,30,06,52,12.00
2013,07,30,06,53,12.00
2013,07,30,06,54,12.10
2013,07,30,06,55,12.20
2013,07,30,06,56,12.20
2013,07,30,06,57,12.20
2013,07,30,06,58,12.30
2013,07,30,06,59,12.30
2013,07,30,07,00,12.40
2013,07,30,07,01,12.40
2013,07,30,07,02,12.50
2013,07,30,07,03,12.50
2013,07,30,07,04,12.50
2013,07,30,07,05,12.60
2013,07,30,07,06,12.60
2013,07,30,07,07,12.70
2013,07,30,07,08,12.70
2013,07,30,07,09,12.70
2013,07,30,07,10,12.80
2013,07,30,07,11,12.80
2013,07,30,07,12,12.90
2013,07,30,07,13,12.90
2013,07,30,07,14,13.00
2013,07,30,07,15,13.00
2013,07,30,07,16,13.10
2013,07,30,07,17,13.10
2013,07,30,07,18,13.20
2013,07,30,07,19,13.30
2013,07,30,07,20,13.30
2013,07,30,07,21,13.40
2013,07,30,07,22,13.40
2013,07,30,07,23,13.50
2013,07,30,07,24,13.50
2013,07,30,07,25,13.60
2013,07,30,07,26,13.60
2013,07,30,07,27,13.70
2013,07,30,07,28,13.70
2013,07,30,07,29,13.70
2013,07,30,07,30,13.80
2013,07,30,07,31,13.80
2013,07,30,07,32,13.90
2013,07,30,07,33,13.90
2013,07,30,07,34,14.00
2013,07,30,07,35,14.10
2013,07,30,07,36,14.10
2013,07,30,07,37,14.20
2013,07,30,07,38,14.20
2013,07,30,07,39,14.20
2013,07,30,07,40,14.20
2013,07,30,07,41,14.20
2013,07,30,07,42,14.30
2013,07,30,07,43,14.30
2013,07,30,07,44,14.30
2013,07,30,07,45,14.20
2013,07,30,07,46,14.20
2013,07,30,07,47,14.20
2013,07,30,07,48,14.20
2013,07,30,07,49,14.20
2013,07,30,07,50,14.20
2013,07,30,07,51,14.20
2013,07,30,07,52,14.10
2013,07,30,07,53,14.10
2013,07,30,07,54,14.10
2013,07,30,07,55,14.10
2013,07,30,07,56,14.10
2013,07,30,07,57,14.00
2013,07,30,07,58,14.00
2013,07,30,07,59,14.00
2013,07,30,08,00,13.90
2013,07,30,08,01,13.90
2013,07,30,08,02,13.90
2013,07,30,08,03,13.90
2013,07,30,08,04,13.90
2013,07,30,08,05,13.90
2013,07,30,08,06,13.80
2013,07,30,08,07,13.80
2013,07,30,08,08,13.80
2013,07,30,08,09,13.80
2013,07,30,08,10,13.80
2013,07,30,08,11,13.80
2013,07,30,08,12,13.80
2013,07,30,08,13,13.80
2013,07,30,08,14,13.80
2013,07,30,08,15,13.80
2013,07,30,08,16,13.90
2013,07,30,08,17,13.80
2013,07,30,08,18,13.80
2013,07,30,08,19,13.80
2013,07,30,08,20,13.90
2013,07,30,08,21,13.90
2013,07,30,08,22,13.90
2013,07,30,08,23,13.90
2013,07,30,08,24,13.90
2013,07,30,08,25,13.90
2013,07,30,08,26,14.00
2013,07,30,08,27,13.90
2013,07,30,08,28,13.90
2013,07,30,08,29,14.00
2013,07,30,08,30,14.00
2013,07,30,08,31,14.00
2013,07,30,08,32,14.10
2013,07,30,08,33,14.10
2013,07,30,08,34,14.10
2013,07,30,08,35,14.20
2013,07,30,08,36,14.20
2013,07,30,08,37,14.20
2013,07,30,08,38,14.30
2013,07,30,08,39,14.30
2013,07,30,08,40,14.30
2013,07,30,08,41,14.40
2013,07,30,08,42,14.50
2013,07,30,08,43,14.50
2013,07,30,08,44,14.60
2013,07,30,08,45,14.60
2013,07,30,08,46,14.70
2013,07,30,08,47,14.70
2013,07,30,08,48,14.80
2013,07,30,08,49,14.80
2013,07,30,08,50,14.80
2013,07,30,08,51,14.90
2013,07,30,08,52,14.90
2013,07,30,08,53,15.00
2013,07,30,08,54,15.00
2013,07,30,08,55,15.10
2013,07,30,08,56,15.10
2013,07,30,08,57,15.10
2013,07,30,08,58,15.20
2013,07,30,08,59,15.20
2013,07,30,09,00,15.20
2013,07,30,09,01,15.30
2013,07,30,09,02,15.30
2013,07,30,09,03,15.30
2013,07,30,09,04,15.30
2013,07,30,09,05,15.30
2013,07,30,09,06,15.30
2013,07,30,09,07,15.30
2013,07,30,09,08,15.30
2013,07,30,09,09,15.30
2013,07,30,09,10,15.30
2013,07,30,09,11,15.30
2013,07,30,09,12,15.40
2013,07,30,09,13,15.40
2013,07,30,09,14,15.40
2013,07,30,09,15,15.50
2013,07,30,09,16,15.50
2013,07,30,09,17,15.60
2013,07,30,09,18,15.50
2013,07,30,09,19,15.60
2013,07,30,09,20,15.60
2013,07,30,09,21,15.70
2013,07,30,09,22,15.70
2013,07,30,09,23,15.80
2013,07,30,09,24,15.80
2013,07,30,09,25,15.80
2013,07,30,09,26,15.80
2013,07,30,09,27,15.70
2013,07,30,09,28,15.70
2013,07,30,09,29,15.80
2013,07,30,09,30,15.80
2013,07,30,09,31,15.80
2013,07,30,09,32,15.70
2013,07,30,09,33,15.70
2013,07,30,09,34,15.70
2013,07,30,09,35,15.70
2013,07,30,09,36,15.80
2013,07,30,09,37,15.80
2013,07,30,09,38,15.90
2013,07,30,09,39,15.90
2013,07,30,09,40,15.90
2013,07,30,09,41,15.90
2013,07,30,09,42,15.90
2013,07,30,09,43,15.90
2013,07,30,09,44,16.00
2013,07,30,09,45,15.90
2013,07,30,09,46,15.90
2013,07,30,09,47,15.90
2013,07,30,09,48,15.90
2013,07,30,09,49,15.90
2013,07,30,09,50,15.80
2013,07,30,09,51,15.80
2013,07,30,09,52,15.80
2013,07,30,09,53,15.80
2013,07,30,09,54,15.70
2013,07,30,09,55,15.70
2013,07,30,09,56,15.70
2013,07,30,09,57,15.70
2013,07,30,09,58,15.70
2013,07,30,09,59,15.80
2013,07,30,10,00,15.80
2013,07,30,10,01,15.80
2013,07,30,10,02,15.80
2013,07,30,10,03,15.90
2013,07,30,10,04,15.90
2013,07,30,10,05,15.90
2013,07,30,10,06,15.90
2013,07,30,10,07,15.90
2013,07,30,10,08,15.90
2013,07,30,10,09,16.00
2013,07,30,10,10,16.00
2013,07,30,10,11,16.10
2013,07,30,10,12,16.10
2013,07,30,10,13,16.10
2013,07,30,10,14,16.10
2013,07,30,10,15,16.10
2013,07,30,10,16,16.10
2013,07,30,10,17,16.20
2013,07,30,10,18,16.20
2013,07,30,10,19,16.20
2013,07,30,10,20,16.20
2013,07,30,10,21,16.30
2013,07,30,10,22,16.40
2013,07,30,10,23,16.40
2013,07,30,10,24,16.40
2013,07,30,10,25,16.40
2013,07,30,10,26,16.50
2013,07,30,10,27,16.50
2013,07,30,10,28,16.50
2013,07,30,10,29,16.40
2013,07,30,10,30,16.40
2013,07,30,10,31,16.40
2013,07,30,10,32,16.40
2013,07,30,10,33,16.40
2013,07,30,10,34,16.40
2013,07,30,10,35,16.40
2013,07,30,10,36,16.40
2013,07,30,10,37,16.40
2013,07,30,10,38,16.40
2013,07,30,10,39,16.40
2013,07,30,10,40,16.50
2013,07,30,10,41,16.50
2013,07,30,10,42,16.60
2013,07,30,10,43,16.60
2013,07,30,10,44,16.70
2013,07,30,10,45,16.70
2013,07,30,10,46,16.70
2013,07,30,10,47,16.70
2013,07,30,10,48,16.80
2013,07,30,10,49,16.80
2013,07,30,10,50,16.90
2013,07,30,10,51,17.00
2013,07,30,10,52,17.00
2013,07,30,10,53,17.20
2013,07,30,10,54,17.30
2013,07,30,10,55,17.40
2013,07,30,10,56,17.50
2013,07,30,10,57,17.60
2013,07,30,10,58,17.70
2013,07,30,10,59,17.70
2013,07,30,11,00,17.80
2013,07,30,11,01,17.90
2013,07,30,11,02,17.90
2013,07,30,11,03,18.00
2013,07,30,11,04,18.10
2013,07,30,11,05,18.10
2013,07,30,11,06,18.10
2013,07,30,11,07,18.20
2013,07,30,11,08,18.20
2013,07,30,11,09,18.20
2013,07,30,11,10,18.20
2013,07,30,11,11,18.20
2013,07,30,11,12,18.20
2013,07,30,11,13,18.20
2013,07,30,11,14,18.20
2013,07,30,11,15,18.20
2013,07,30,11,16,18.20
2013,07,30,11,17,18.20
2013,07,30,11,18,18.30
2013,07,30,11,19,18.40
2013,07,30,11,20,18.50
2013,07,30,11,21,18.50
2013,07,30,11,22,18.50
2013,07,30,11,23,18.60
2013,07,30,11,24,18.60
2013,07,30,11,25,18.50
2013,07,30,11,26,18.40
2013,07,30,11,27,18.40
2013,07,30,11,28,18.30
2013,07,30,11,29,18.30
2013,07,30,11,30,18.20
2013,07,30,11,31,18.10
2013,07,30,11,32,18.00
2013,07,30,11,33,18.00
2013,07,30,11,34,17.90
2013,07,30,11,35,17.90
2013,07,30,11,36,17.80
2013,07,30,11,37,17.80
2013,07,30,11,38,17.80
2013,07,30,11,39,17.80
2013,07,30,11,40,17.80
2013,07,30,11,41,17.80
2013,07,30,11,42,17.70
2013,07,30,11,43,17.70
2013,07,30,11,44,17.70
2013,07,30,11,45,17.80
2013,07,30,11,46,17.90
2013,07,30,11,47,18.00
2013,07,30,11,48,18.10
2013,07,30,11,49,18.20
2013,07,30,11,50,18.20
2013,07,30,11,51,18.30
2013,07,30,11,52,18.40
2013,07,30,11,53,18.40
2013,07,30,11,54,18.40
2013,07,30,11,55,18.40
2013,07,30,11,56,18.40
2013,07,30,11,57,18.40
2013,07,30,11,58,18.40
2013,07,30,11,59,18.50
2013,07,30,12,00,18.60
2013,07,30,12,01,18.60
2013,07,30,12,02,18.70
2013,07,30,12,03,18.70
2013,07,30,12,04,18.80
2013,07,30,12,05,18.80
2013,07,30,12,06,18.90
2013,07,30,12,07,18.90
2013,07,30,12,08,19.00
2013,07,30,12,09,19.10
2013,07,30,12,10,19.20
2013,07,30,12,11,19.20
2013,07,30,12,12,19.30
2013,07,30,12,13,19.30
2013,07,30,12,14,19.40
2013,07,30,12,15,19.50
2013,07,30,12,16,19.60
2013,07,30,12,17,19.70
2013,07,30,12,18,19.90
2013,07,30,12,19,20.00
2013,07,30,12,20,20.10
2013,07,30,12,21,20.20
2013,07,30,12,22,20.20
2013,07,30,12,23,20.30
2013,07,30,12,24,20.40
2013,07,30,12,25,20.50
2013,07,30,12,26,20.50
2013,07,30,12,27,20.60
2013,07,30,12,28,20.70
2013,07,30,12,29,20.80
2013,07,30,12,30,20.90
2013,07,30,12,31,21.00
2013,07,30,12,32,21.10
2013,07,30,12,33,21.20
2013,07,30,12,34,21.30
2013,07,30,12,35,21.30
2013,07,30,12,36,21.40
2013,07,30,12,37,21.30
2013,07,30,12,38,21.30
2013,07,30,12,39,21.20
2013,07,30,12,40,21.20
2013,07,30,12,41,21.10
2013,07,30,12,42,21.10
2013,07,30,12,43,21.10
2013,07,30,12,44,21.10
2013,07,30,12,45,21.20
2013,07,30,12,46,21.20
2013,07,30,12,47,21.30
2013,07,30,12,48,21.40
2013,07,30,12,49,21.50
2013,07,30,12,50,21.60
2013,07,30,12,51,21.70
2013,07,30,12,52,21.90
2013,07,30,12,53,21.90
2013,07,30,12,54,22.00
2013,07,30,12,55,22.10
2013,07,30,12,56,22.10
2013,07,30,12,57,22.10
2013,07,30,12,58,22.10
2013,07,30,12,59,22.00
2013,07,30,13,00,22.00
2013,07,30,13,01,22.00
2013,07,30,13,02,22.00
2013,07,30,13,03,22.00
2013,07,30,13,04,21.90
2013,07,30,13,05,21.80
2013,07,30,13,06,21.60
2013,07,30,13,07,21.40
2013,07,30,13,08,21.20
2013,07,30,13,09,21.10
2013,07,30,13,10,21.10
2013,07,30,13,11,21.10
2013,07,30,13,12,21.00
2013,07,30,13,13,20.90
2013,07,30,13,14,20.80
2013,07,30,13,15,20.70
2013,07,30,13,16,20.70
2013,07,30,13,17,20.70
2013,07,30,13,18,20.60
2013,07,30,13,19,20.50
2013,07,30,13,20,20.50
2013,07,30,13,21,20.40
2013,07,30,13,22,20.50
2013,07,30,13,23,20.50
2013,07,30,13,24,20.60
2013,07,30,13,25,20.60
2013,07,30,13,26,20.70
2013,07,30,13,27,20.70
2013,07,30,13,28,20.70
2013,07,30,13,29,20.80
2013,07,30,13,30,20.80
2013,07,30,13,31,20.80
2013,07,30,13,32,20.80
2013,07,30,13,33,20.80
2013,07,30,13,34,20.80
2013,07,30,13,35,20.90
2013,07,30,13,36,20.80
2013,07,30,13,37,20.80
2013,07,30,13,38,20.70
2013,07,30,13,39,20.70
2013,07,30,13,40,20.70
2013,07,30,13,41,20.60
2013,07,30,13,42,20.60
2013,07,30,13,43,20.60
2013,07,30,13,44,20.60
2013,07,30,13,45,20.60
2013,07,30,13,46,20.70
2013,07,30,13,47,20.80
2013,07,30,13,48,20.80
2013,07,30,13,49,20.90
2013,07,30,13,50,20.90
2013,07,30,13,51,21.00
2013,07,30,13,52,21.10
2013,07,30,13,53,21.20
2013,07,30,13,54,21.20
2013,07,30,13,55,21.20
2013,07,30,13,56,21.20
2013,07,30,13,57,21.10
2013,07,30,13,58,21.00
2013,07,30,13,59,20.90
2013,07,30,14,00,20.90
2013,07,30,14,01,20.80
2013,07,30,14,02,20.80
2013,07,30,14,03,20.80
2013,07,30,14,04,20.80
2013,07,30,14,05,20.90
2013,07,30,14,06,20.90
2013,07,30,14,07,21.00
2013,07,30,14,08,21.10
2013,07,30,14,09,21.10
2013,07,30,14,10,21.00
2013,07,30,14,11,20.90
2013,07,30,14,12,20.90
2013,07,30,14,13,20.90
2013,07,30,14,14,21.00
2013,07,30,14,15,21.00
2013,07,30,14,16,21.00
2013,07,30,14,17,21.00
2013,07,30,14,18,20.90
2013,07,30,14,19,20.90
2013,07,30,14,20,20.90
2013,07,30,14,21,20.80
2013,07,30,14,22,20.90
2013,07,30,14,23,20.90
2013,07,30,14,24,20.90
2013,07,30,14,25,21.00
2013,07,30,14,26,21.00
2013,07,30,14,27,21.00
2013,07,30,14,28,20.90
2013,07,30,14,29,20.90
2013,07,30,14,30,20.90
2013,07,30,14,31,20.90
2013,07,30,14,32,20.90
2013,07,30,14,33,20.90
2013,07,30,14,34,20.80
2013,07,30,14,35,20.80
2013,07,30,14,36,20.80
2013,07,30,14,37,20.90
2013,07,30,14,38,20.90
2013,07,30,14,39,20.90
2013,07,30,14,40,21.00
2013,07,30,14,41,20.90
2013,07,30,14,42,20.90
2013,07,30,14,43,20.90
2013,07,30,14,44,20.80
2013,07,30,14,45,20.70
2013,07,30,14,46,20.70
2013,07,30,14,47,20.80
2013,07,30,14,48,20.80
2013,07,30,14,49,20.80
2013,07,30,14,50,20.70
2013,07,30,14,51,20.70
2013,07,30,14,52,20.80
2013,07,30,14,53,20.90
2013,07,30,14,54,20.80
2013,07,30,14,55,20.80
2013,07,30,14,56,20.80
2013,07,30,14,57,20.70
2013,07,30,14,58,20.80
2013,07,30,14,59,20.80
2013,07,30,15,00,20.90
2013,07,30,15,01,21.00
2013,07,30,15,02,21.00
2013,07,30,15,03,21.10
2013,07,30,15,04,21.10
2013,07,30,15,05,21.10
2013,07,30,15,06,21.10
2013,07,30,15,07,21.10
2013,07,30,15,08,21.20
2013,07,30,15,09,21.30
2013,07,30,15,10,21.30
2013,07,30,15,11,21.30
2013,07,30,15,12,21.40
2013,07,30,15,13,21.40
2013,07,30,15,14,21.40
2013,07,30,15,15,21.50
2013,07,30,15,16,21.60
2013,07,30,15,17,21.60
2013,07,30,15,18,21.60
2013,07,30,15,19,21.60
2013,07,30,15,20,21.60
2013,07,30,15,21,21.60
2013,07,30,15,22,21.60
2013,07,30,15,23,21.60
2013,07,30,15,24,21.60
2013,07,30,15,25,21.60
2013,07,30,15,26,21.70
2013,07,30,15,27,21.70
2013,07,30,15,28,21.70
2013,07,30,15,29,21.70
2013,07,30,15,30,21.70
2013,07,30,15,31,21.80
2013,07,30,15,32,21.80
2013,07,30,15,33,21.80
2013,07,30,15,34,21.80
2013,07,30,15,35,21.80
2013,07,30,15,36,21.80
2013,07,30,15,37,21.90
2013,07,30,15,38,21.90
2013,07,30,15,39,21.90
2013,07,30,15,40,21.80
2013,07,30,15,41,21.80
2013,07,30,15,42,21.90
2013,07,30,15,43,21.90
2013,07,30,15,44,21.90
2013,07,30,15,45,22.00
2013,07,30,15,46,22.00
2013,07,30,15,47,22.10
2013,07,30,15,48,22.10
2013,07,30,15,49,22.00
2013,07,30,15,50,21.90
2013,07,30,15,51,21.90
2013,07,30,15,52,22.00
2013,07,30,15,53,22.00
2013,07,30,15,54,22.10
2013,07,30,15,55,22.10
2013,07,30,15,56,22.20
2013,07,30,15,57,22.20
2013,07,30,15,58,22.30
2013,07,30,15,59,22.30
2013,07,30,16,00,22.50
2013,07,30,16,01,22.60
2013,07,30,16,02,22.60
2013,07,30,16,03,22.60
2013,07,30,16,04,22.60
2013,07,30,16,05,22.70
2013,07,30,16,06,22.80
2013,07,30,16,07,22.80
2013,07,30,16,08,22.80
2013,07,30,16,09,22.80
2013,07,30,16,10,22.80
2013,07,30,16,11,22.80
2013,07,30,16,12,22.70
2013,07,30,16,13,22.60
2013,07,30,16,14,22.60
2013,07,30,16,15,22.50
2013,07,30,16,16,22.50
2013,07,30,16,17,22.50
2013,07,30,16,18,22.50
2013,07,30,16,19,22.50
2013,07,30,16,20,22.60
2013,07,30,16,21,22.60
2013,07,30,16,22,22.60
2013,07,30,16,23,22.70
2013,07,30,16,24,22.90
2013,07,30,16,25,22.90
2013,07,30,16,26,23.00
2013,07,30,16,27,23.00
2013,07,30,16,28,22.90
2013,07,30,16,29,22.90
2013,07,30,16,30,22.80
2013,07,30,16,31,22.70
2013,07,30,16,32,22.60
2013,07,30,16,33,22.60
2013,07,30,16,34,22.60
2013,07,30,16,35,22.60
2013,07,30,16,36,22.70
2013,07,30,16,37,22.80
2013,07,30,16,38,22.80
2013,07,30,16,39,22.90
2013,07,30,16,40,22.90
2013,07,30,16,41,22.80
2013,07,30,16,42,22.80
2013,07,30,16,43,22.80
2013,07,30,16,44,22.80
2013,07,30,16,45,22.90
2013,07,30,16,46,22.90
2013,07,30,16,47,22.90
2013,07,30,16,48,22.90
2013,07,30,16,49,22.90
2013,07,30,16,50,22.90
2013,07,30,16,51,22.90
2013,07,30,16,52,22.90
2013,07,30,16,53,23.00
2013,07,30,16,54,23.00
2013,07,30,16,55,23.00
2013,07,30,16,56,23.00
2013,07,30,16,57,23.00
2013,07,30,16,58,23.00
2013,07,30,16,59,22.90
2013,07,30,17,00,22.90
2013,07,30,17,01,22.80
2013,07,30,17,02,22.80
2013,07,30,17,03,22.80
2013,07,30,17,04,22.70
2013,07,30,17,05,22.70
2013,07,30,17,06,22.60
2013,07,30,17,07,22.60
2013,07,30,17,08,22.50
2013,07,30,17,09,22.50
2013,07,30,17,10,22.50
2013,07,30,17,11,22.40
2013,07,30,17,12,22.40
2013,07,30,17,13,22.40
2013,07,30,17,14,22.40
2013,07,30,17,15,22.30
2013,07,30,17,16,22.30
2013,07,30,17,17,22.30
2013,07,30,17,18,22.30
2013,07,30,17,19,22.30